Regional Weather Roundup
Issued by NWS

Home | Current Version | Previous Version | Text Only | Print | Product List | Glossary Off
Versions: 1 2 3 4 5 6 7 8 9 10 11 12 13 14 15 16 17 18 19 20 21 22 23 24 25 26 27 28 29 30 31 32 33 34 35 36 37 38 39 40 41 42 43 44 45 46 47 48 49 50

000
ASUS43 KLMK 032202
RWRKY
KENTUCKY REGIONAL WEATHER ROUNDUP
NATIONAL WEATHER SERVICE LOUISVILLE KY
500 PM EST TUE MAR 03 2015

NOTE "FAIR" INDICATES FEW OR NO CLOUDS BELOW 12,000 FEET
WITH NO SIGNIFICANT WEATHER AND/OR OBSTRUCTIONS TO VISIBILITY.

KYZ001>023-026-027-061>063-070>075-032300-
WESTERN AND SOUTH CENTRAL KENTUCKY

CITY           SKY/WX    TMP DP  RH WIND       PRES   REMARKS
PADUCAH        CLOUDY    53  52  96 SW16G26   29.85F FOG
HENDERSON      CLOUDY    52  48  87 SW14      29.82F
OWENSBORO      CLOUDY    58  55  89 SW15      29.82F
HOPKINSVILLE   PTSUNNY   65  58  78 SW20G25   29.88S
BOWLING GREEN  CLOUDY    64  57  78 S16       29.88F
GLASGOW        NOT AVBL
$$

KYZ024-025-028>034-038-045-046-053-032300-
NORTH CENTRAL KENTUCKY

CITY           SKY/WX    TMP DP  RH WIND       PRES   REMARKS
LOUISVILLE/SDF CLOUDY    62  56  80 SW20G31   29.79F
LOUISVILLE/LOU CLOUDY    62  56  80 SW14G28   29.79F
FORT KNOX      CLOUDY    60  56  85 SW18G24   29.80S
$$

KYZ035>037-039>044-047>052-055>060-089>105-032300-
NORTHEAST KENTUCKY

CITY           SKY/WX    TMP DP  RH WIND       PRES   REMARKS
LEXINGTON      CLOUDY    60  56  86 SW16G29   29.82F
COVINGTON      HVY RAIN  45  44  97 W12       29.78R VSB 1/4
FRANKFORT      CLOUDY    60  55  83 SW17G26   29.79F
$$

KYZ054-064>069-076>088-106>120-032300-
SOUTHEAST KENTUCKY

CITY           SKY/WX    TMP DP  RH WIND       PRES   REMARKS
JACKSON        CLOUDY    61  53  75 VRB7G18   29.90F
LONDON         CLOUDY    61  51  70 S8G17     29.93F
SOMERSET       NOT AVBL
MIDDLESBORO    NOT AVBL
MONTICELLO     CLOUDY    64  58  81 SW21      29.96F
$$




USA.gov is the U.S. government's official web portal to all federal, state and local government web resources and services.